RH
19 18 18 17 15 14 12 12 12 12 11 12 11 10 9 12 11 11 11 10 10 9 9 8 8 8 8 9 9 8 7 7 6 6 5 4 4 3 3 3 3 3 4 5 6
20 19 19 18 15 12 12 14 14 12 13 14 12 12 8 10 13 13 12 11 11 10 10 8 8 9 10 10 9 9 8 8 7 6 5 4 3 3 3 2 2 2 3 4 4
21 20 20 19 15 12 13 14 16 13 14 15 14 13 14 11 13 15 14 13 12 11 10 9 10 10 11 11 10 9 8 8 8 6 5 4 4 3 3 2 2 2 4 3 3
22 21 21 20 18 13 13 14 17 14 15 16 15 14 15 16 14 15 14 14 13 12 10 10 11 11 12 11 10 9 8 9 9 7 5 5 4 3 2 2 2 2 4 3 5
23 22 22 21 20 18 15 13 18 15 16 17 17 17 16 16 16 15 14 14 13 12 11 11 12 12 12 12 11 10 9 10 10 8 6 5 4 3 2 1 1 3 6 5 5
24 24 24 23 22 20 18 15 16 19 17 18 19 18 18 17 19 18 17 16 15 14 13 12 13 13 13 12 11 12 10 10 10 9 7 6 5 3 2 2 1 2 5 10 6
28 27 26 25 24 22 20 15 13 20 20 20 20 20 21 20 21 20 19 18 16 16 15 14 14 14 13 12 12 14 12 12 11 10 8 7 5 3 3 2 1 1 4 10 13
30 30 30 28 27 26 23 20 14 16 21 22 21 21 21 22 21 21 21 19 19 19 18 14 14 15 13 13 14 15 14 15 12 11 10 8 6 4 3 3 2 1 1 4 10
33 32 32 32 31 30 27 23 20 22 22 24 23 23 23 24 24 23 22 22 21 19 18 15 15 15 16 15 15 16 16 18 16 11 11 10 7 6 3 4 3 2 2 1 3
35 34 33 34 34 33 31 27 24 22 24 24 26 25 24 24 24 24 23 23 21 19 17 15 16 18 19 19 20 19 18 21 21 14 12 10 10 7 3 5 5 3 3 2 2
35 34 34 34 33 34 33 31 27 26 28 27 28 27 25 24 25 25 24 23 22 20 17 15 18 19 23 24 23 21 20 23 23 16 14 12 13 9 4 6 6 5 4 3 2
36 35 34 33 34 33 32 32 31 25 26 28 29 28 25 24 27 28 25 23 22 20 18 16 17 21 25 27 26 23 23 26 24 19 13 13 15 11 5 6 7 7 5 4 4
40 38 37 36 35 34 34 34 33 29 24 27 30 28 25 24 28 28 27 26 23 23 20 17 19 22 26 30 29 25 24 30 29 18 13 16 15 16 7 7 8 8 7 5 4
41 40 39 37 38 38 36 34 31 23 22 29 30 29 29 24 28 30 30 30 29 28 24 23 22 22 26 32 32 26 28 32 31 18 14 18 27 11 9 9 10 10 10 6 4
39 39 39 39 38 36 33 30 31 23 31 31 31 31 31 28 29 32 33 32 31 33 33 29 27 26 27 32 34 32 30 35 27 16 15 18 21 16 14 13 12 13 17 10 4
39 39 39 37 36 32 29 25 29 30 34 33 32 34 32 31 30 30 33 35 34 35 37 36 31 29 32 31 35 36 35 36 26 16 35 22 23 20 21 19 15 15 22 16 6
40 38 37 34 32 31 29 24 29 26 32 34 32 33 33 33 32 36 35 39 42 43 44 40 36 36 32 33 38 38 38 39 56 53 54 28 28 24 25 25 21 21 27 20 7
29 30 29 29 25 26 26 24 24 32 35 34 32 35 36 37 35 40 41 41 47 56 55 53 38 39 41 36 40 37 40 43 63 56 49 35 28 26 29 35 35 35 31 22 9
14 13 14 15 13 17 24 27 34 37 40 38 36 37 41 46 42 48 44 42 50 57 65 61 52 40 42 44 44 40 40 51 43 45 48 31 25 30 33 40 46 45 38 27 10
8 10 13 12 11 13 20 34 38 40 44 42 44 44 51 53 50 54 47 47 54 62 69 66 60 43 45 49 43 44 48 50 48 54 67 40 29 32 37 42 49 48 43 28 9
15 14 14 14 14 16 21 30 29 35 46 45 49 55 55 57 59 56 53 57 64 70 73 75 70 48 54 48 49 47 47 51 58 50 64 58 46 39 40 47 52 50 42 34 7
14 14 13 14 14 16 21 18 20 33 39 42 46 54 59 63 64 65 66 70 74 79 79 75 78 63 55 53 49 49 50 54 53 60 49 49 61 39 46 54 55 51 58 21 8
10 11 12 13 14 18 16 17 21 24 26 29 46 50 54 69 70 69 73 75 77 81 83 83 74 74 58 48 55 58 62 63 58 55 54 63 57 44 53 62 59 73 63 21 9
10 12 13 13 16 15 15 16 17 18 19 28 32 33 52 63 56 68 73 80 80 79 79 89 84 79 72 65 65 62 62 64 66 60 59 62 54 49 62 72 78 86 71 28 8
15 16 16 15 16 16 18 20 19 19 25 30 33 38 44 49 51 55 54 66 53 57 70 84 79 68 63 60 69 55 54 57 62 63 69 54 68 60 77 92 90 94 70 26 6
34 38 37 36 46 57 66 61 67 65 64 56 53 54 52 45 50 58 49 47 54 58 75 85 72 75 53 49 59 60 54 60 63 64 67 60 62 62 85 96 96 96 70 39 9
51 59 68 64 67 72 74 83 89 87 76 76 67 65 72 66 61 46 47 52 55 63 78 86 77 85 66 46 61 49 48 57 58 62 68 68 73 88 94 98 96 94 83 78 7
Wind_Speed
12 12 12 11 8 8 10 10 11 11 12 11 11 7 6 12 10 10 7 6 4 5 5 5 6 7 8 9 10 9 8 10 13 17 18 19 23 26 27 29 32 34 34 33 31
11 11 11 11 9 9 10 10 10 11 12 11 10 11 3 5 12 8 7 7 7 6 5 5 7 7 10 11 11 12 9 13 16 16 18 19 23 28 27 30 33 34 31 26 25
10 10 10 11 10 10 9 10 10 9 10 11 10 10 11 3 7 11 10 9 8 7 6 6 8 11 11 11 12 12 9 12 15 17 17 18 23 26 29 32 34 32 26 22 20
9 9 10 10 9 7 6 9 10 8 9 12 11 9 12 14 5 10 10 9 8 7 6 7 10 12 12 13 14 9 8 13 15 18 17 20 23 25 28 32 32 28 22 19 16
9 9 9 9 8 6 4 4 10 8 9 10 11 10 9 12 12 12 11 10 9 9 8 9 9 11 14 13 14 11 8 14 16 18 17 23 24 25 29 32 30 27 21 17 16
9 9 8 8 7 6 4 1 4 8 4 8 10 13 15 10 14 14 12 10 10 10 8 8 10 13 15 11 13 12 13 16 18 19 19 22 16 22 29 32 31 28 24 21 19
9 9 8 8 8 7 6 4 4 6 7 6 10 12 12 14 15 14 14 12 11 10 8 7 10 15 14 10 13 13 14 16 19 19 20 21 17 18 27 32 31 28 24 22 20
9 9 9 10 9 8 7 5 0 1 7 10 7 10 14 17 17 17 15 13 12 11 9 5 10 13 15 13 15 17 10 18 21 20 20 19 17 20 26 30 29 28 26 24 23
8 9 10 10 10 10 8 6 5 5 4 9 10 10 14 17 17 17 16 14 13 12 9 3 9 14 17 17 16 17 18 25 21 16 21 20 13 18 19 25 30 30 30 26 23
8 9 9 10 10 10 9 6 3 6 5 4 14 7 17 16 21 21 18 15 13 12 7 2 9 13 16 20 18 22 22 28 33 21 19 19 16 13 11 22 29 30 31 30 25
7 8 8 9 10 10 9 8 5 3 10 11 13 15 18 14 22 22 18 15 14 15 4 2 8 15 21 22 23 23 22 32 32 26 24 21 21 14 9 19 29 32 33 33 31
7 8 8 9 10 10 9 9 4 4 2 12 13 15 20 16 22 20 18 19 16 17 7 3 8 15 21 23 26 24 22 33 28 29 25 21 19 10 10 17 27 34 35 36 35
7 8 9 9 10 10 9 9 6 3 3 7 14 14 19 18 22 22 19 18 18 20 10 3 10 12 19 25 29 24 24 34 37 29 20 24 9 17 9 15 23 34 38 39 41
8 8 9 9 9 10 11 10 8 1 4 8 15 13 17 19 20 23 21 21 17 17 11 6 13 13 16 24 29 20 27 35 32 18 9 21 9 4 7 14 23 33 39 41 43
8 9 10 11 12 13 12 10 8 4 2 7 13 13 13 17 17 20 21 22 17 19 21 16 12 14 17 23 30 24 29 36 23 15 15 6 6 7 13 16 22 33 40 43 45
7 8 9 11 11 12 11 10 6 2 3 5 10 14 10 14 14 20 22 22 16 20 23 18 13 12 21 20 28 29 30 26 15 10 3 3 13 11 14 24 26 29 42 44 46
7 8 9 10 10 10 10 10 3 5 8 9 13 14 10 17 13 19 19 16 20 25 27 21 14 18 14 23 23 23 24 9 5 3 4 9 17 13 18 24 27 30 41 45 46
8 9 9 10 11 11 10 9 3 7 7 12 15 12 10 20 15 22 22 15 18 26 17 19 14 25 21 21 21 15 13 3 5 4 7 25 11 12 15 26 30 34 42 46 48
9 9 10 11 12 11 10 6 5 8 10 13 16 10 10 18 16 22 20 13 20 25 20 11 12 24 18 22 22 12 9 9 8 9 5 8 13 30 20 27 37 41 44 48 48
8 9 9 12 12 12 10 6 7 10 11 13 10 9 15 19 16 20 11 13 14 24 26 19 15 18 19 24 17 13 12 9 3 5 7 8 14 17 24 31 42 43 47 48 48
10 10 11 11 14 11 9 8 12 12 12 13 13 15 15 19 21 20 10 19 18 26 28 25 12 23 28 20 22 18 14 4 7 6 3 5 14 28 22 41 47 46 47 48 48
13 13 14 12 14 12 9 14 14 11 14 15 16 13 15 18 19 13 18 18 27 29 29 15 19 20 34 21 13 19 22 19 7 6 11 9 30 13 38 45 44 45 47 46 47
14 15 12 15 11 7 14 15 12 14 14 17 13 17 20 19 14 18 18 28 24 32 27 27 14 22 19 7 16 26 24 21 20 23 23 7 19 36 45 45 42 45 47 47 49
16 12 15 15 7 16 17 14 16 17 19 15 17 19 20 21 22 20 27 20 32 35 34 30 19 18 24 33 37 40 44 40 28 19 23 42 59 52 47 48 44 49 51 51 52
15 14 16 15 15 15 15 16 16 16 18 19 21 19 21 25 27 23 30 31 35 37 32 30 33 38 38 40 39 30 33 38 43 43 35 54 51 50 47 44 48 51 47 51 53
17 16 18 19 16 17 15 15 17 19 22 24 22 25 26 28 26 30 30 32 33 35 36 38 27 40 46 30 22 48 31 25 29 31 42 43 53 42 42 45 52 51 44 47 53
19 18 19 21 20 19 18 18 22 23 22 28 29 28 30 29 30 30 31 34 35 35 37 34 27 29 27 36 46 19 31 36 32 33 37 41 43 38 45 57 56 54 43 46 54
Wind_Direction
63 62 60 61 68 73 95 83 70 60 54 49 43 49 72 45 43 39 32 30 27 20 12 9 4 2 1 6 16 23 27 9 357 344 341 334 329 326 325 328 324 323 317 312 309
63 62 63 61 64 92 100 81 65 62 52 48 47 45 59 33 37 26 29 31 27 22 18 9 3 4 9 10 17 21 26 9 351 350 343 334 335 328 330 334 332 328 320 317 311
64 63 62 63 71 102 98 76 64 72 56 49 50 53 47 51 23 20 21 24 19 12 2 359 7 12 6 11 20 16 18 359 356 348 343 341 336 332 339 343 338 333 324 316 309
64 61 61 65 71 91 95 76 57 79 59 48 47 54 43 40 16 18 21 21 14 4 346 4 12 7 3 12 14 9 7 359 356 350 348 342 338 340 347 345 344 337 322 313 308
65 63 59 58 62 75 94 93 56 73 59 50 47 42 33 32 31 28 21 18 8 3 358 1 2 6 9 7 4 3 356 356 353 352 354 346 339 346 354 352 346 342 329 319 308
63 61 60 58 53 51 46 84 89 49 54 41 34 29 29 19 28 23 14 7 4 1 352 353 3 11 10 5 3 355 6 350 353 353 353 345 335 347 357 357 356 351 336 324 310
61 58 54 51 48 44 46 55 157 37 51 36 34 31 27 34 24 17 8 2 0 359 350 350 4 18 2 5 5 3 9 354 352 353 347 342 339 351 360 2 2 358 340 320 312
55 49 46 46 44 41 39 44 81 352 28 26 19 26 22 23 17 13 6 360 358 356 352 350 9 7 7 5 4 11 358 8 350 347 342 340 338 347 359 360 6 6 353 329 311
47 41 36 37 36 34 35 39 56 41 16 26 22 24 21 18 16 7 2 358 354 354 352 3 13 8 8 13 11 3 354 0 356 337 336 342 347 335 347 352 4 9 3 349 327
38 35 30 29 30 29 26 26 359 0 37 32 28 22 17 16 9 5 6 1 356 357 357 32 17 15 7 16 13 351 350 349 345 336 339 333 339 315 311 350 360 7 7 3 351
25 22 21 18 19 17 13 6 358 83 72 53 34 29 19 15 10 10 10 6 4 1 16 62 21 9 9 10 5 357 351 341 344 338 332 329 337 307 287 343 354 1 2 3 1
13 8 7 5 5 2 356 357 0 191 41 32 25 20 17 16 11 9 9 16 14 11 25 20 1 5 2 3 1 353 350 344 346 337 323 323 341 335 277 325 343 352 353 354 356
9 6 2 360 358 355 356 355 349 265 205 16 17 13 11 10 11 11 10 12 15 16 11 8 354 351 360 1 352 349 346 344 333 330 321 327 330 334 294 315 340 346 346 349 349
12 8 6 7 360 5 4 2 6 12 181 5 9 5 7 9 9 10 12 12 14 15 5 351 343 339 352 358 351 350 340 336 328 316 312 325 300 298 310 322 339 341 344 345 345
17 19 17 16 15 11 12 13 25 90 83 356 358 1 2 8 2 6 8 10 14 15 8 353 345 339 340 351 351 343 340 331 323 304 304 308 322 303 315 326 332 334 339 342 342
15 17 18 15 12 11 9 10 20 30 22 349 351 350 350 357 356 1 2 4 8 11 7 359 352 347 339 342 347 343 344 326 316 305 278 218 359 293 336 326 325 327 335 338 338
3 8 10 9 9 7 7 5 16 44 343 339 340 342 342 351 351 358 357 1 11 6 0 3 351 349 345 335 339 338 348 330 341 338 245 287 316 316 331 330 328 328 334 334 334
348 350 353 356 358 358 360 0 26 352 344 337 335 336 343 350 346 349 350 352 359 6 0 350 336 338 335 331 324 327 12 52 286 296 294 293 237 330 333 345 340 336 333 331 331
334 341 346 349 349 350 352 1 8 345 332 335 335 336 339 344 344 345 342 343 350 354 4 340 314 326 322 328 326 323 336 339 269 276 313 261 274 325 336 338 342 337 330 328 327
346 348 351 350 352 347 350 360 345 333 330 335 338 325 325 338 341 342 342 333 338 342 344 333 311 317 318 320 313 297 297 316 315 323 305 282 284 284 329 336 338 333 327 324 324
334 337 339 341 344 345 350 357 339 333 332 333 328 321 327 332 333 334 323 332 333 333 334 330 314 317 317 313 303 294 283 287 293 231 215 300 283 317 324 336 333 326 323 323 322
317 324 326 329 337 340 352 340 336 331 332 330 328 325 324 328 327 324 326 325 327 329 328 326 309 303 310 306 291 286 280 274 250 244 236 260 277 300 328 330 325 318 325 324 323
305 310 313 319 325 329 330 330 333 331 330 326 322 325 324 327 330 316 322 323 322 325 318 321 312 323 323 322 320 310 301 296 267 266 251 230 266 311 319 325 320 319 329 326 328
306 309 311 317 320 321 323 330 331 329 326 328 323 325 325 324 327 314 321 316 320 319 318 313 297 288 271 292 294 298 293 292 279 261 271 260 296 313 325 321 321 330 332 329 329
306 310 310 306 312 322 329 330 335 330 328 326 323 326 324 318 320 318 320 316 317 316 314 310 305 305 307 308 295 291 290 287 278 278 262 303 284 311 321 317 319 329 332 329 327
306 307 304 305 312 316 327 331 331 328 323 320 318 318 319 317 312 312 311 313 309 309 304 302 302 308 310 323 309 319 310 304 292 283 280 301 299 324 314 321 327 329 331 329 326
297 296 298 297 303 307 305 316 318 316 314 315 313 314 318 316 314 312 307 307 300 297 293 294 299 303 299 318 316 301 327 316 305 308 307 294 315 315 316 329 331 330 330 331 328